Flag for Switzerland Weather past 2 weeks in Carouge, Geneva, Switzerland

Now
43 °F

Passing clouds.


Feels Like: 43 °F
Forecast: 45 / 76 °F
Wind: 2 mph from Northwest

Location: Geneve-Cointrin

Current Time: May 28, 2015 at 6:15:40 AM

Latest Report: May 28, 2015 at 5:00 AM


Visibility: 31 mi

Pressure: 30.17 "Hg

Humidity: 88%

Dew point: 39 °F

Location of CarougeLocation

Historic Weather in Carouge — Graph

°F

Carouge temperature yesterday

Maximum temperature yesterday: 66 °F (at 5:00 PM)
Minimum temperature yesterday: 50 °F (at 6:00 AM)
Average temperature yesterday: 58 °F

Past Weeks' High & Low Weather Summary

 TemperatureHumidityPressure
High85 °F (May 13, 4:00 PM)93% (May 26, 5:00 AM)30.33 "Hg (May 26, 5:00 AM)
Low44 °F (May 28, 4:00 AM)27% (May 13, 3:00 PM)29.75 "Hg (May 18, 6:00 PM)
Average58 °F60%30.05 "Hg
* Reported May 13 4:00 AM — May 28 4:00 AM, Carouge, Weather by CustomWeather, © 2015

Note: Actual official high and low records may vary slightly from our data, if they occured in-between our weather recording intervals... More about our weather records

Advertising

Carouge weather history for previous 24 hours

 ConditionsComfort  
Time TempWeatherWind HumidityBarometerVisibility
4:00 AM
Thu, May 28
44 °FQuite cool.No wind86%30.17 "HgN/A
3:00 AM46 °FCool.1 mph82%30.16 "HgN/A
2:00 AM47 °FCool.2 mph77%30.17 "HgN/A
1:00 AM48 °FCool.1 mph78%30.17 "HgN/A
12:00 AM50 °FCool.1 mph71%30.17 "HgN/A
10:00 PM
Wed, May 27
54 °FCool.2 mph63%30.15 "HgN/A
9:00 PM58 °FRefreshingly cool.5 mph49%30.12 "HgN/A
8:00 PM63 °FPassing clouds.10 mph40%30.11 "Hg37 mi
7:00 PM65 °FMild.14 mph37%30.11 "HgN/A
6:00 PM65 °FMild.13 mph32%30.11 "HgN/A
5:00 PM66 °FPassing clouds.16 mph36%30.12 "Hg31 mi
4:00 PM65 °FMild.17 mph35%30.13 "HgN/A
3:00 PM64 °FMild.18 mph38%30.14 "HgN/A
2:00 PM62 °FPassing clouds.21 mph40%30.16 "Hg25 mi
1:00 PM61 °FRefreshingly cool.18 mph41%30.17 "HgN/A
12:00 PM60 °FRefreshingly cool.20 mph44%30.18 "HgN/A
11:00 AM58 °FPassing clouds.18 mph47%30.19 "Hg25 mi
10:00 AM56 °FRefreshingly cool.18 mph49%30.20 "HgN/A
9:00 AM55 °FCool.18 mph55%30.20 "HgN/A
8:00 AM53 °FPassing clouds.15 mph57%30.20 "Hg25 mi
7:00 AM51 °FCool.12 mph58%30.21 "HgN/A
6:00 AM50 °FCool.13 mph62%30.20 "HgN/A
Weather by CustomWeather, © 2015

See weather overviewHow to use our weather pages